Home > Weather > Kotka > Past weeks

Flag for Finland Past Weather in Kotka, Finland — Yesterday and Last 2 Weeks

Now
75 °F

Scattered clouds.


Feels Like: 77 °F
Forecast: 64 / 73 °F
Wind: 2 mph from North

Location: Utti

Current Time: Jul 25, 2016 at 1:09:49 PM

Latest Report: Jul 25, 2016 at 12:20 PM


Visibility: N/A

Pressure: 30.09 "Hg

Humidity: 65%

Dew Point: 63 °F

Location of KotkaLocation

Past Weather in Kotka — Graph

°F

Kotka Temperature Yesterday

Maximum temperature yesterday: 75 °F (at 2:50 PM)
Minimum temperature yesterday: 61 °F (at 12:20 AM)
Average temperature yesterday: 69 °F

High & Low Weather Summary for the Past Weeks

 TemperatureHumidityPressure
High75 °F (Jul 24, 2:50 PM)100% (Jul 11, 2:20 AM)30.12 "Hg (Jul 11, 2:20 AM)
Low52 °F (Jul 11, 3:50 AM)38% (Jul 19, 3:20 PM)29.47 "Hg (Jul 12, 5:20 AM)
Average63 °F78%29.85 "Hg
* Reported Jul 10 12:20 PM — Jul 25 12:20 PM, Kotka, Weather by CustomWeather, © 2016

Note: Actual official high and low records may vary slightly from our data, if they occured in-between our weather recording intervals... More about our weather records

Advertising

Kotka Weather History for the Previous 24 Hours

Scroll right to see more
 ConditionsComfort  
Time TempWeatherWind HumidityBarometerVisibility
12:20 PM
Mon, Jul 25
75 °FScattered clouds.2 mph65%30.09 "HgN/A
11:20 AM73 °FScattered clouds.5 mph74%30.09 "HgN/A
10:50 AM72 °FPartly sunny.3 mph78%30.09 "HgN/A
10:20 AM70 °FPartly sunny.6 mph83%30.09 "HgN/A
9:50 AM68 °FPartly sunny.5 mph88%30.09 "HgN/A
9:20 AM66 °FPartly sunny.5 mph94%30.09 "HgN/A
8:51 AM64 °FBroken clouds.2 mph94%30.09 "Hg3 mi
8:20 AM61 °FPartly sunny.3 mph100%30.09 "Hg1 mi
7:50 AM61 °FFog.3 mph100%30.09 "Hg1 mi
7:20 AM61 °FFog.2 mph94%30.09 "Hg1 mi
6:50 AM59 °FFog.3 mph100%30.09 "Hg1 mi
6:20 AM59 °FFog.2 mph100%30.09 "Hg1 mi
5:50 AM59 °FFog.2 mph100%30.09 "Hg0 mi
5:20 AM59 °FFog.1 mph100%30.12 "Hg0 mi
4:50 AM59 °FFog.2 mph100%30.12 "Hg0 mi
4:20 AM59 °FFog.1 mph100%30.12 "Hg0 mi
3:50 AM61 °FFog.2 mph94%30.09 "Hg2 mi
3:20 AM61 °FCool.1 mph100%30.09 "Hg4 mi
2:50 AM61 °FCool.1 mph100%30.12 "Hg5 mi
2:20 AM63 °FMild.1 mph94%30.12 "HgN/A
1:50 AM63 °FMild.1 mph94%30.12 "HgN/A
1:20 AM63 °FMild.2 mph94%30.12 "HgN/A
12:50 AM63 °FMild.2 mph94%30.12 "HgN/A
12:20 AM63 °FMild.1 mph94%30.12 "HgN/A
11:50 PM
Sun, Jul 24
64 °FMild.3 mph88%30.12 "HgN/A
11:20 PM64 °FMild.1 mph88%30.12 "HgN/A
10:50 PM68 °FMild.3 mph83%30.12 "HgN/A
10:20 PM68 °FMild.2 mph83%30.12 "HgN/A
9:50 PM70 °FMild.3 mph78%30.12 "HgN/A
9:20 PM70 °FMild.6 mph78%30.12 "HgN/A
8:50 PM72 °FMild.6 mph78%30.12 "HgN/A
8:20 PM73 °FMild.7 mph69%30.12 "HgN/A
7:50 PM73 °FMild.6 mph69%30.09 "HgN/A
7:20 PM73 °FMild.7 mph69%30.09 "HgN/A
6:50 PM75 °FMild.8 mph61%30.09 "HgN/A
6:20 PM75 °FMild.8 mph61%30.09 "HgN/A
5:50 PM75 °FMild.9 mph61%30.09 "HgN/A
5:20 PM75 °FMild.8 mph61%30.12 "HgN/A
4:50 PM75 °FMild.7 mph61%30.12 "HgN/A
4:20 PM75 °FMild.7 mph61%30.12 "HgN/A
3:50 PM75 °FMild.9 mph61%30.12 "HgN/A
3:20 PM75 °FMild.8 mph61%30.12 "HgN/A
2:50 PM75 °FMild.9 mph65%30.12 "HgN/A
2:20 PM73 °FMild.8 mph69%30.12 "HgN/A
1:50 PM73 °FMild.7 mph69%30.12 "HgN/A
1:20 PM73 °FMild.7 mph69%30.12 "HgN/A
Weather by CustomWeather, © 2016

See weather overviewHow to use our weather pages